Location: Rounton
(54.4000°N, 1.3500°W)
Time: 06:26:26
(UTC+01:00)

deb Agena D - Pass Details

Date: 16 June 2023
Orbit: 996 x 1023 km, 100.1° (Epoch: 29 September)

Event Time Altitude Azimuth Distance (km) Brightness Sun altitude
Exits shadow 00:38:29 12° 146° (SSE) 2,637 ? -12.0°
Maximum altitude 00:44:18 68° 66° (ENE) 1,073 ? -12.1°
Drops below altitude 10° 00:50:29 10° 345° (NNW) 2,778 ? -12.2°
Sets 00:52:58 0° 343° (NNW) 3,731 ? -12.2°
